Weather History for KCMR - March, 2014

Change the Weather History Date:

Saturday, March 22, 2014

  Actual Average (KFLG) Record (KFLG)
Temperature  
Mean Temperature 42 °F 38 °F  
Max Temperature 59 °F 52 °F 68 °F (2004)
Min Temperature 26 °F 24 °F -1 °F (1952)
Degree Days  
Heating Degree Days 22 27  
Month to date heating degree days 632  
Since 1 July heating degree days 5471  
Cooling Degree Days 0 0  
Month to date cooling degree days 0  
Year to date cooling degree days 0  
Moisture  
Dew Point 18 °F    
Average Humidity 39    
Maximum Humidity 61    
Minimum Humidity 21    
Precipitation  
Precipitation 0.00 in 0.07 in 1.28 in (1954)
Month to date precipitation 1.60  
Year to date precipitation 5.81  
Sea Level Pressure  
Sea Level Pressure 30.14 in    
Wind  
Wind Speed 8 mph (South)    
Max Wind Speed 18 mph    
Max Gust Speed 33 mph    
Visibility 10 miles    
Events      
T = Trace of Precipitation, MM = Missing Value Source: NWS Daily Summary

Daily Weather History Graph

Daily Weather History Graph

Search for Another Location

Airport or City:

Trip Planner

Search our weather history database for the weather conditions in past years. The results will help you decide how hot, cold, wet, or windy it might be!

Date:

Astronomy

Mar. 22, 2014 Rise Set
Actual Time 6:29 AM MST 6:42 PM MST
Civil Twilight 6:04 AM MST 7:07 PM MST
Nautical Twilight 5:34 AM MST 7:37 PM MST
Astronomical Twilight 5:04 AM MST 8:07 PM MST
Moon No Moon Rise 10:26 AM MST (3/22)
Length of Visible Light 13h 03m
Length of Day
12h 12m
Waning Gibbous, 64% of the Moon is Illuminated
Mar 22
Waning Gibbous
Mar 23
Last Quarter
Mar 30
New
Apr 7
First Quarter
Apr 15
Full

Hourly Weather History & Observations

Time (MST) Temp. Windchill Dew Point Humidity Pressure Visibility Wind Dir Wind Speed Gust Speed Precip Events Conditions
12:15 AM 32.0 °F 26.4 °F 6.8 °F 35% 30.10 in 10.0 mi South 5.8 mph - N/A   Clear
12:35 AM 32.0 °F 27.5 °F 6.8 °F 35% 30.10 in 10.0 mi South 4.6 mph - N/A   Clear
12:55 AM 32.0 °F 25.6 °F 6.8 °F 35% 30.10 in 10.0 mi SSE 6.9 mph - N/A   Clear
1:15 AM 32.0 °F 24.8 °F 8.6 °F 38% 30.10 in 10.0 mi SSE 8.1 mph - N/A   Clear
1:35 AM 32.0 °F 24.8 °F 8.6 °F 38% 30.10 in 10.0 mi SSE 8.1 mph - N/A   Clear
1:55 AM 35.6 °F 30.7 °F 10.4 °F 35% 30.10 in 10.0 mi South 5.8 mph - N/A   Clear
2:15 AM 32.0 °F 26.4 °F 10.4 °F 41% 30.09 in 10.0 mi SSE 5.8 mph - N/A   Clear
2:35 AM 30.2 °F 23.4 °F 10.4 °F 44% 30.09 in 10.0 mi SSE 6.9 mph - N/A   Clear
2:55 AM 32.0 °F 25.6 °F 10.4 °F 41% 30.09 in 10.0 mi SSE 6.9 mph - N/A   Clear
3:15 AM 32.0 °F 26.4 °F 10.4 °F 41% 30.08 in 10.0 mi SE 5.8 mph - N/A   Clear
3:35 AM 35.6 °F 30.7 °F 12.2 °F 38% 30.08 in 10.0 mi SSE 5.8 mph - N/A   Clear
3:55 AM 32.0 °F 25.6 °F 10.4 °F 41% 30.08 in 10.0 mi SSE 6.9 mph - N/A   Clear
4:15 AM 30.2 °F 23.4 °F 10.4 °F 44% 30.08 in 10.0 mi SE 6.9 mph - N/A   Clear
4:35 AM 26.6 °F 19.1 °F 12.2 °F 55% 30.08 in 10.0 mi SSE 6.9 mph - N/A   Clear
4:55 AM 26.6 °F 18.2 °F 12.2 °F 55% 30.09 in 10.0 mi SSE 8.1 mph - N/A   Clear
5:15 AM 26.6 °F 17.5 °F 12.2 °F 55% 30.09 in 10.0 mi SSE 9.2 mph - N/A   Clear
5:35 AM 26.6 °F 19.1 °F 12.2 °F 55% 30.10 in 10.0 mi SE 6.9 mph - N/A   Clear
5:55 AM 26.6 °F 18.2 °F 12.2 °F 55% 30.10 in 10.0 mi SE 8.1 mph - N/A   Clear
6:15 AM 26.6 °F 18.2 °F 12.2 °F 55% 30.11 in 10.0 mi SSE 8.1 mph - N/A   Clear
6:35 AM 26.6 °F 18.2 °F 12.2 °F 55% 30.12 in 10.0 mi SSE 8.1 mph - N/A   Clear
6:55 AM 26.6 °F 18.2 °F 14.0 °F 59% 30.12 in 10.0 mi SE 8.1 mph - N/A   Clear
7:15 AM 28.4 °F 20.4 °F 14.0 °F 55% 30.13 in 10.0 mi SE 8.1 mph - N/A   Clear
7:35 AM 33.8 °F 28.6 °F 14.0 °F 44% 30.13 in 10.0 mi SE 5.8 mph - N/A   Clear
7:55 AM 37.4 °F 33.8 °F 15.8 °F 41% 30.13 in 10.0 mi SE 4.6 mph - N/A   Clear
8:15 AM 44.6 °F 40.7 °F 15.8 °F 31% 30.13 in 10.0 mi South 6.9 mph - N/A   Clear
8:35 AM 48.2 °F - 15.8 °F 27% 30.14 in 10.0 mi SW 9.2 mph - N/A   Clear
8:55 AM 48.2 °F - 14.0 °F 25% 30.14 in 10.0 mi SW 11.5 mph - N/A   Clear
9:15 AM 48.2 °F - 15.8 °F 27% 30.14 in 10.0 mi SSW 12.7 mph - N/A   Clear
9:35 AM 50.0 °F - 15.8 °F 26% 30.15 in 10.0 mi South 9.2 mph 18.4 mph N/A   Clear
9:55 AM 50.0 °F - 17.6 °F 28% 30.15 in 10.0 mi SSW 11.5 mph - N/A   Clear
10:15 AM 51.8 °F - 15.8 °F 24% 30.15 in 10.0 mi South 12.7 mph 19.6 mph N/A   Clear
10:35 AM 53.6 °F - 17.6 °F 24% 30.15 in 10.0 mi SW 13.8 mph 19.6 mph N/A   Clear
10:55 AM 53.6 °F - 15.8 °F 22% 30.15 in 10.0 mi SW 11.5 mph 19.6 mph N/A   Clear
11:15 AM 53.6 °F - 15.8 °F 22% 30.15 in 10.0 mi SW 15.0 mph 19.6 mph N/A   Clear
11:35 AM 55.4 °F - 17.6 °F 23% 30.15 in 10.0 mi WSW 8.1 mph - N/A   Clear
11:55 AM 55.4 °F - 15.8 °F 21% 30.16 in 10.0 mi SW 10.4 mph 18.4 mph N/A   Partly Cloudy
12:15 PM 55.4 °F - 17.6 °F 23% 30.15 in 10.0 mi SW 12.7 mph - N/A   Clear
12:35 PM 57.2 °F - 19.4 °F 23% 30.15 in 10.0 mi WSW 12.7 mph 20.7 mph N/A   Partly Cloudy
12:55 PM 55.4 °F - 19.4 °F 25% 30.14 in 10.0 mi WSW 9.2 mph 23.0 mph N/A   Mostly Cloudy
1:15 PM 55.4 °F - 17.6 °F 23% 30.14 in 10.0 mi West 9.2 mph 19.6 mph N/A   Mostly Cloudy
1:35 PM 55.4 °F - 19.4 °F 25% 30.14 in 10.0 mi West 10.4 mph - N/A   Overcast
1:55 PM 57.2 °F - 17.6 °F 21% 30.13 in 10.0 mi SW 13.8 mph 19.6 mph N/A   Mostly Cloudy
2:15 PM 55.4 °F - 17.6 °F 23% 30.13 in 10.0 mi SSW 9.2 mph 17.3 mph N/A   Mostly Cloudy
2:35 PM 55.4 °F - 17.6 °F 23% 30.13 in 10.0 mi SW 9.2 mph 16.1 mph N/A   Overcast
2:55 PM 59.0 °F - 19.4 °F 22% 30.12 in 10.0 mi SW 15.0 mph 21.9 mph N/A   Mostly Cloudy
3:15 PM 57.2 °F - 19.4 °F 23% 30.13 in 10.0 mi South 12.7 mph - N/A   Mostly Cloudy
3:35 PM 55.4 °F - 19.4 °F 25% 30.12 in 10.0 mi West 5.8 mph - N/A   Overcast
3:55 PM 55.4 °F - 19.4 °F 25% 30.12 in 10.0 mi SW 4.6 mph - N/A   Mostly Cloudy
4:15 PM 57.2 °F - 19.4 °F 23% 30.12 in 10.0 mi WSW 11.5 mph 18.4 mph N/A   Mostly Cloudy
4:35 PM 55.4 °F - 19.4 °F 25% 30.12 in 10.0 mi NNW 9.2 mph - N/A   Mostly Cloudy
4:55 PM 55.4 °F - 19.4 °F 25% 30.13 in 10.0 mi West 11.5 mph 17.3 mph N/A   Mostly Cloudy
5:15 PM 53.6 °F - 19.4 °F 26% 30.14 in 10.0 mi West 10.4 mph 20.7 mph N/A   Mostly Cloudy
5:35 PM 53.6 °F - 21.2 °F 28% 30.15 in 10.0 mi SW 18.4 mph 33.4 mph N/A   Overcast
5:55 PM 48.2 °F - 24.8 °F 40% 30.16 in 8.0 mi West 5.8 mph - N/A   Overcast
6:15 PM 50.0 °F - 24.8 °F 37% 30.17 in 10.0 mi North 6.9 mph - N/A   Overcast
6:35 PM 48.2 °F - 26.6 °F 43% 30.17 in 10.0 mi East 10.4 mph - N/A   Mostly Cloudy
6:55 PM 48.2 °F - 26.6 °F 43% 30.17 in 10.0 mi East 8.1 mph - N/A   Overcast
7:15 PM 46.4 °F 43.5 °F 28.4 °F 50% 30.18 in 10.0 mi SE 5.8 mph - N/A   Mostly Cloudy
7:35 PM 46.4 °F 42.9 °F 28.4 °F 50% 30.19 in 10.0 mi ENE 6.9 mph - N/A   Overcast
7:55 PM 48.2 °F - 26.6 °F 43% 30.20 in 10.0 mi Calm Calm - N/A   Mostly Cloudy
8:15 PM 44.6 °F 40.7 °F 26.6 °F 49% 30.20 in 10.0 mi East 6.9 mph - N/A   Scattered Clouds
8:35 PM 44.6 °F - 26.6 °F 49% 30.21 in 10.0 mi Calm Calm - N/A   Mostly Cloudy
8:55 PM 44.6 °F 42.2 °F 28.4 °F 53% 30.22 in 10.0 mi SSE 4.6 mph - N/A   Overcast
9:15 PM 42.8 °F 40.1 °F 28.4 °F 57% 30.22 in 10.0 mi SE 4.6 mph - N/A   Mostly Cloudy
9:35 PM 42.8 °F 41.1 °F 28.4 °F 57% 30.23 in 10.0 mi SE 3.5 mph - N/A   Overcast
9:55 PM 42.8 °F 39.3 °F 28.4 °F 57% 30.23 in 10.0 mi SE 5.8 mph - N/A   Overcast
10:15 PM 41.0 °F 37.1 °F 28.4 °F 61% 30.23 in 10.0 mi SE 5.8 mph - N/A   Overcast
10:35 PM 41.0 °F 36.4 °F 28.4 °F 61% 30.23 in 10.0 mi SE 6.9 mph - N/A   Scattered Clouds
10:55 PM 41.0 °F 36.4 °F 28.4 °F 61% 30.23 in 10.0 mi SSE 6.9 mph - N/A   Mostly Cloudy
11:15 PM 41.0 °F 37.1 °F 26.6 °F 57% 30.23 in 10.0 mi SE 5.8 mph - N/A   Mostly Cloudy
11:35 PM 39.2 °F 35.0 °F 26.6 °F 61% 30.23 in 10.0 mi SE 5.8 mph - N/A   Partly Cloudy
11:55 PM 39.2 °F 35.9 °F 26.6 °F 61% 30.24 in 10.0 mi ESE 4.6 mph - N/A   Partly Cloudy